N0BHC Weather Reports


time (UTC)temp
F
wind
direction
speed
knots
gust
knots
rain 1hr
in
rain 24hr
in
rain mn
in
humidity
%
barometer
mb
20190719074458 74 203 1.7 2.6 0.00 0.24 0.00 90 1006.6
20190719073000 74 254 0.0 0.0 0.00 0.24 0.00 90 1006.9
20190719072357 74 254 0.0 0.0 0.00 0.00 0.00 90 1006.7
20190719071458 74 254 0.0 0.0 0.00 0.24 0.00 90 1006.8
20190719071356 74 254 0.0 0.0 0.00 0.00 0.00 90 1006.8
20190719065959 75 254 0.0 0.0 0.00 0.24 0.00 90 1006.8
20190719065355 75 254 0.0 0.0 0.00 0.00 0.00 90 1006.8
20190719064458 75 254 0.9 5.2 0.00 0.24 0.00 90 1006.7
20190719063000 75 261 0.0 0.0 0.00 0.24 0.00 90 1006.6
20190719061459 75 261 0.0 0.0 0.00 0.24 0.00 89 1006.5
20190719055958 75 261 0.0 0.0 0.00 0.24 0.00 89 1006.5
20190719054458 76 261 0.0 0.0 0.00 0.24 0.00 89 1006.4
20190719052959 76 261 0.0 0.0 0.00 0.24 0.00 88 1006.2
20190719051458 76 261 0.0 2.6 0.00 0.24 0.00 88 1006.1
20190719045959 77 198 0.0 0.0 0.00 0.24 0.00 88 1006.1
20190719045531 77 198 0.0 0.0 0.00 0.00 0.00 88 1006.0
20190719045355 77 198 0.0 0.0 0.00 0.00 0.00 88 1006.0
20190719044457 77 198 0.0 6.1 0.00 0.24 0.24 88 1006.1
20190719043000 77 198 0.9 5.2 0.00 0.24 0.24 87 1005.9
20190719041457 78 239 1.7 6.1 0.00 0.24 0.24 87 1005.9
20190719035959 78 137 0.0 0.0 0.00 0.24 0.24 87 1005.6
20190719034458 79 137 0.0 0.0 0.00 0.24 0.24 87 1006.0
20190719032959 79 137 0.0 1.7 0.00 0.24 0.24 87 1006.1
20190719032355 79 137 0.0 1.7 0.00 0.00 0.00 86 1006.1
20190719031458 79 226 0.0 6.1 0.00 0.24 0.24 86 1006.1
20190719025958 80 224 1.7 5.2 0.00 0.24 0.24 86 1006.1
20190719024458 80 232 0.9 5.2 0.00 0.24 0.24 86 1006.1
20190719022959 80 206 0.0 5.2 0.00 0.24 0.24 85 1005.7
20190719021458 81 203 0.0 2.6 0.00 0.24 0.24 82 1006.0
20190719015959 81 24 0.0 0.0 0.00 0.24 0.24 80 1006.2
20190719014458 82 24 0.0 0.0 0.00 0.24 0.24 80 1006.4
20190719013354 82 24 0.0 0.0 0.00 0.00 0.00 80 1006.4
20190719012959 82 24 0.0 0.0 0.00 0.24 0.24 80 1006.5
20190719011458 83 24 0.0 0.0 0.00 0.24 0.24 77 1006.4
20190719010355 83 24 0.0 0.0 0.00 0.00 0.00 76 1005.9
20190719005959 83 24 0.0 0.0 0.00 0.24 0.24 76 1005.9
20190719004459 83 24 0.0 2.6 0.00 0.24 0.24 75 1005.3
20190719002959 83 215 0.0 0.0 0.00 0.24 0.24 74 1005.5
20190719002355 83 215 0.0 0.0 0.00 0.00 0.00 74 1005.8
20190719001458 83 215 0.0 0.0 0.00 0.24 0.24 74 1005.9
20190719000355 84 215 0.0 0.0 0.00 0.00 0.00 75 1005.6
20190718235958 84 215 0.0 0.0 0.00 0.24 0.24 75 1005.6
20190718234459 84 215 0.0 0.0 0.00 0.24 0.24 74 1005.7
20190718233000 84 215 0.0 2.6 0.00 0.24 0.24 74 1005.7
20190718231458 84 103 0.0 5.2 0.00 0.24 0.24 75 1006.0
20190718225958 84 160 1.7 4.3 0.00 0.24 0.24 73 1006.1
20190718224458 84 286 0.9 4.3 0.00 0.24 0.24 73 1006.0
20190718223000 84 287 0.0 4.3 0.00 0.24 0.24 73 1006.0
20190718222356 85 284 0.0 2.6 0.00 0.00 0.00 73 1006.0
20190718221458 85 286 2.6 5.2 0.00 0.24 0.24 72 1006.2
20190718215958 84 211 2.6 7.8 0.00 0.24 0.24 73 1006.2
20190718214458 84 247 2.6 7.8 0.00 0.24 0.24 75 1006.2
20190718212959 84 220 2.6 8.7 0.00 0.24 0.24 76 1006.5
20190718211505 84 233 0.9 6.1 0.00 0.00 0.00 77 1006.5
20190718211458 84 244 3.5 7.0 0.00 0.24 0.24 77 1006.5
20190718210355 84 233 0.9 6.1 0.00 0.00 0.00 77 1006.5
20190718205959 84 141 0.0 6.1 0.00 0.24 0.24 77 1006.5
20190718204458 84 7 0.0 7.8 0.00 0.24 0.24 75 1006.3
20190718203000 84 349 1.7 4.3 0.00 0.24 0.24 76 1006.3
20190718201459 84 243 1.7 5.2 0.00 0.24 0.24 73 1006.4
20190718195959 83 234 3.5 7.0 0.00 0.24 0.24 76 1006.2
20190718194459 82 217 1.7 7.0 0.00 0.24 0.24 80 1006.4
20190718193000 81 126 1.7 6.1 0.00 0.24 0.24 82 1006.3
20190718191458 80 233 2.6 7.8 0.00 0.24 0.24 85 1006.5
20190718185959 80 286 2.6 7.0 0.00 0.24 0.24 84 1006.8
20190718185355 80 293 0.0 7.0 0.00 0.00 0.00 83 1007.0
20190718184459 81 302 2.6 7.0 0.00 0.24 0.24 83 1007.0
20190718183000 81 7 1.7 6.1 0.00 0.24 0.24 80 1007.0
20190718182357 81 145 0.0 2.6 0.00 0.00 0.00 80 1007.0
20190718181458 82 329 2.6 10.4 0.00 0.24 0.24 80 1007.1
20190718181356 82 31 1.7 2.6 0.00 0.00 0.00 79 1007.1
20190718175959 81 242 4.3 11.3 0.00 0.24 0.24 82 1007.2
20190718174458 81 284 3.5 7.8 0.00 0.24 0.24 85 1007.5
20190718173000 80 290 3.5 10.4 0.00 0.24 0.24 86 1008.0
20190718171459 80 214 5.2 8.7 0.00 0.24 0.24 86 1008.0
20190718165959 79 202 4.3 8.7 0.00 0.24 0.24 87 1007.6
20190718165359 79 218 4.3 7.0 0.00 0.00 0.00 88 1007.9
20190718164459 78 245 5.2 12.2 0.00 0.24 0.24 89 1007.9
20190718164356 78 183 5.2 10.4 0.00 0.00 0.00 90 1008.1
20190718163000 76 270 5.2 12.2 0.00 0.24 0.24 90 1008.1
20190718162357 76 253 7.8 11.3 0.00 0.00 0.00 90 1007.9
20190718161459 75 192 3.5 12.2 0.00 0.24 0.24 90 1007.9
20190718155959 75 216 5.2 13.9 0.00 0.24 0.24 90 1007.7
20190718154459 74 245 6.1 13.0 0.00 0.24 0.24 90 1008.0
20190718153358 74 212 7.0 12.2 0.00 0.00 0.00 90 1007.8
20190718153001 73 221 7.0 12.2 0.00 0.24 0.24 90 1007.7
20190718151459 73 210 7.8 13.9 0.00 0.24 0.24 90 1008.1
20190718145959 73 219 5.2 8.7 0.00 0.24 0.24 90 1007.9
20190718145356 73 222 6.1 7.8 0.00 0.00 0.00 90 1007.8
20190718144459 73 241 3.5 7.8 0.00 0.24 0.24 90 1007.6
20190718143001 72 258 4.3 7.0 0.09 0.24 0.24 90 1007.8
20190718141458 72 160 0.0 6.1 0.09 0.24 0.24 90 1007.8
20190718141355 72 203 2.6 6.1 0.00 0.00 0.00 90 1007.8
20190718135959 72 224 2.6 6.1 0.09 0.24 0.24 90 1008.1
20190718134459 72 204 3.5 7.8 0.09 0.24 0.24 90 1008.2
20190718134355 72 214 4.3 7.8 0.00 0.00 0.00 90 1008.2
20190718133000 72 221 4.3 7.0 0.00 0.15 0.15 90 1008.0
20190718131459 72 232 2.6 7.0 0.00 0.15 0.15 90 1007.9
20190718130000 72 181 0.0 6.1 0.00 0.15 0.15 90 1008.0
20190718124458 72 228 4.3 7.0 0.00 0.15 0.15 90 1008.2
20190718122959 72 244 3.5 6.1 0.00 0.15 0.15 90 1008.1
20190718121459 71 249 0.9 6.1 0.00 0.15 0.15 90 1008.0
20190718121356 71 152 0.0 2.6 0.00 0.00 0.00 90 1008.0
20190718115959 71 230 4.3 6.1 0.00 0.15 0.15 90 1007.7
20190718115355 71 215 4.3 6.1 0.00 0.00 0.00 90 1007.7
20190718114459 71 215 1.7 5.2 0.00 0.15 0.15 90 1008.0
20190718113000 71 267 0.9 4.3 0.00 0.15 0.15 90 1008.2
20190718111459 71 274 0.0 0.0 0.00 0.15 0.15 90 1007.7
20190718110851 71 274 0.0 0.0 0.00 0.00 0.00 90 1007.4
20190718110356 71 274 0.0 0.0 0.00 0.00 0.00 90 1007.4
20190718105959 71 274 0.0 4.3 0.01 0.15 0.15 90 1007.3
20190718104731 71 246 2.6 4.3 0.00 0.00 0.00 90 1007.1
20190718104459 72 218 1.7 5.2 0.05 0.15 0.15 90 1007.2
20190718104356 71 246 2.6 4.3 0.00 0.00 0.00 90 1007.1
20190718103750 72 168 0.9 4.3 0.00 0.00 0.00 90 1006.9
20190718103355 72 168 0.9 4.3 0.00 0.00 0.00 90 1006.9
20190718103000 72 220 2.6 7.8 0.12 0.15 0.15 90 1007.0
20190718101459 72 255 3.5 6.1 0.15 0.15 0.15 90 1006.8
20190718101356 72 286 1.7 4.3 0.00 0.00 0.00 90 1006.7
20190718100355 73 272 1.7 5.2 0.00 0.00 0.00 90 1006.9
20190718095959 72 217 1.7 11.3 0.14 0.14 0.14 90 1006.7
20190718094459 73 208 7.8 21.7 0.10 0.10 0.10 90 1006.9
20190718093355 73 211 8.7 18.2 0.00 0.00 0.00 90 1007.7
20190718093001 73 231 6.1 13.0 0.03 0.03 0.03 89 1008.0
20190718092357 73 263 5.2 12.2 0.00 0.00 0.00 89 1007.4
20190718091459 73 220 8.7 13.9 0.00 0.00 0.00 89 1007.6
20190718090356 73 235 7.0 8.7 0.00 0.00 0.00 89 1006.9
20190718090000 73 223 7.0 11.3 0.00 0.00 0.00 90 1007.1
20190718084459 73 225 5.2 13.0 0.00 0.00 0.00 90 1007.5
20190718083000 73 225 7.0 12.2 0.00 0.00 0.00 90 1007.6
20190718081459 73 217 5.2 7.8 0.00 0.00 0.00 90 1007.9
20190718080357 73 204 4.3 7.0 0.00 0.00 0.00 90 1007.4
20190718075959 74 231 4.3 7.8 0.00 0.00 0.00 90 1007.3